sat.trackr.live / text

‹ back to catalog

STARLINK-32279

NORAD 61003 · 2024-158P

PAYLOAD ACTIVE UNKNOWN

§ Identity

Operator
Country
US
Launch date
2024-09-05
Launch site
AFETR
Launch vehicle
Mass (kg)
RCS (m²)

Purposes: comms

External: N2YO · Heavens-Above · Gunter

§ Orbital elements

Epoch: 2026-05-25T04:38:25.262016Z

Period
94.11 min
Inclination
53.1603°
Eccentricity
0.0001185
Mean motion
15.30196110 rev/d
Perigee alt
474.4 km
Apogee alt
476.0 km
Semi-major
6,853.4 km
B*
2.5714e-5
RAAN
70.2255°
Arg perigee
79.1102°
Mean anomaly
281.0032°
Rev number
9,736

§ Raw data

STARLINK-322791 61003U 24158P   26145.19334794  .00000402  00000+0  25714-4 0  99962 61003  53.1603  70.2255 0001185  79.1102 281.0032 15.30196110 97364

JSON: /api/v1/satellites/61003 · /tle

For live sub-satellite position, see the globe view (requires WebGL).

§ Visibility from observer

Set your observer location to see the next 7 days of passes ≥ 10°. The values pass through the URL so the page stays shareable.

No JS? Fill the form by hand. The geolocation button needs JavaScript.